Temperature
19 17 17 17 17 18 18 18 18 18 19 18 17 17 17 16 16 16 16 16 16 17 17 17 17 17 17 17 16 16 16 16 15 15 15 15 15 15 14 14 14 14 14 14
17 17 18 18 18 18 18 18 18 18 18 18 17 17 17 16 16 16 16 16 16 17 17 17 17 17 17 17 17 16 16 16 16 15 15 15 15 15 14 14 14 14 14 14
18 18 19 19 18 18 18 18 18 18 18 18 18 17 16 16 16 16 16 16 16 17 17 17 17 17 17 17 17 16 16 16 15 15 15 15 15 14 14 14 14 14 14 14
18 18 19 18 18 18 18 18 18 18 17 16 17 16 16 16 15 15 16 16 16 17 17 17 17 17 17 17 16 16 16 16 15 15 15 15 15 14 14 14 14 13 13 13
18 18 18 18 18 18 18 18 18 17 17 16 16 16 15 15 16 15 15 16 17 17 17 17 17 17 17 17 16 16 16 15 15 15 15 15 14 14 14 14 14 13 13 13
18 18 18 19 19 18 18 17 16 14 14 15 16 15 15 15 16 16 16 16 17 17 17 17 17 17 17 17 16 16 16 15 15 15 14 14 14 14 14 14 13 13 13 13
17 18 18 19 18 18 17 16 15 15 14 15 15 15 15 16 16 16 16 17 17 17 17 17 17 17 17 16 16 16 16 15 15 15 14 14 14 14 14 14 13 13 13 13
17 17 18 18 18 17 17 16 15 15 15 14 15 15 15 16 16 16 17 17 17 17 17 17 17 17 17 17 16 16 15 15 15 15 14 14 14 14 13 13 13 13 13 13
16 16 18 18 18 17 16 15 15 14 15 14 14 15 15 16 15 15 16 16 16 17 17 17 17 17 17 16 16 16 15 15 15 15 14 14 14 14 13 13 13 13 13 12
16 16 17 17 18 17 17 15 13 14 14 14 15 15 15 16 16 15 14 15 16 16 17 17 17 17 16 16 16 16 15 15 15 15 14 14 14 14 13 13 13 13 13 12
15 15 16 17 17 17 16 15 14 13 13 14 14 15 16 15 15 14 14 15 16 16 16 17 17 16 16 16 16 15 15 15 15 15 14 14 14 13 13 13 13 13 12 12
14 13 14 15 16 17 16 15 14 14 14 13 13 14 16 15 15 15 15 15 16 16 16 16 16 16 16 16 15 15 15 15 15 14 14 14 14 13 13 13 13 13 12 12
14 13 14 15 15 16 16 15 14 13 12 12 13 15 15 14 14 15 15 15 15 16 16 16 16 16 15 15 15 15 15 15 14 14 14 13 13 13 13 13 13 12 12 12
14 12 13 14 15 15 15 15 14 14 13 12 13 14 14 14 14 14 14 15 15 15 15 15 15 15 15 15 15 15 15 14 14 14 13 13 13 13 13 12 12 12 12 12
13 13 13 14 14 15 15 15 14 14 14 13 14 14 14 14 13 14 14 14 14 14 14 15 15 15 15 15 15 14 14 14 14 13 13 13 13 13 12 12 12 12 12 12
11 12 13 14 14 14 14 14 14 14 14 13 14 13 14 14 14 14 14 14 14 14 14 14 14 14 14 14 14 14 14 14 13 13 13 13 13 12 12 12 12 12 12 11
10 11 12 12 13 14 13 14 14 14 13 14 14 14 13 13 13 13 13 14 14 14 14 14 14 14 14 14 14 14 14 13 13 13 13 12 12 12 12 12 11 11 11 11
10 10 10 11 12 13 14 14 14 14 14 13 13 13 13 13 13 14 14 14 14 14 13 14 13 13 13 13 13 13 13 13 13 13 12 12 12 12 12 11 11 11 11 11
10 10 10 10 11 12 13 14 14 13 13 13 13 12 12 12 13 13 14 14 14 14 14 13 13 13 13 13 13 13 13 13 12 12 12 12 12 11 11 11 11 11 10 10
9 9 10 10 12 12 13 14 14 14 13 13 12 12 12 11 11 12 14 14 14 13 13 13 13 13 13 13 12 12 12 12 12 12 12 11 11 11 11 11 10 10 10 10
10 10 9 9 11 11 12 13 14 13 13 13 13 13 12 11 12 13 13 13 13 13 13 13 13 12 12 12 12 12 12 12 11 11 11 11 11 11 10 10 10 10 10 10
10 10 9 9 10 11 12 12 12 12 13 13 13 13 13 13 13 13 13 13 13 12 12 12 12 12 12 11 11 11 11 11 11 11 10 10 10 10 10 10 10 10 9 9
9 9 9 10 11 11 12 12 13 13 13 13 13 13 13 13 13 12 12 12 12 12 12 12 12 11 11 11 11 11 11 10 10 10 10 10 10 10 9 9 9 9 9 9
8 8 8 9 10 11 12 12 13 13 13 13 13 13 13 13 12 12 12 12 12 11 11 11 11 11 11 10 10 10 10 10 10 10 9 9 9 9 9 9 9 9 9 8
9 8 8 9 9 10 12 12 12 12 12 12 12 12 12 12 12 12 11 11 11 11 11 11 11 10 10 10 10 10 10 9 9 9 9 9 9 9 9 8 8 8 8 8
7 8 8 9 10 9 11 12 12 12 12 12 12 12 12 12 11 11 11 11 11 11 11 11 10 10 10 10 10 9 9 9 9 9 9 9 9 8 8 8 8 7 7 7
Wind_Speed
3 4 2 5 5 4 4 4 2 3 2 2 4 5 6 4 4 6 6 6 6 6 5 3 3 4 5 5 5 5 5 4 4 3 3 3 2 1 2 2 3 4 4 5
4 1 4 2 3 4 3 2 1 3 1 2 3 5 5 4 6 7 8 8 8 5 3 2 3 4 5 6 6 6 6 6 5 4 3 2 2 2 1 2 3 3 4 4
4 3 1 3 2 3 2 4 3 2 3 3 1 5 4 3 3 3 5 6 6 7 6 5 4 5 5 6 6 7 6 6 6 4 4 3 3 3 2 1 1 1 3 3
2 2 2 3 2 4 2 4 4 2 1 2 1 3 6 4 3 4 5 5 6 6 6 5 5 5 6 7 6 6 7 6 5 6 5 5 4 3 2 2 1 1 2 3
2 2 3 2 3 5 4 1 2 2 2 1 1 1 7 2 3 6 6 6 7 7 7 7 7 7 7 6 6 6 6 5 5 5 6 5 3 3 2 2 2 1 1 1
2 1 3 4 2 3 3 5 5 5 4 1 3 3 6 4 5 5 5 6 7 7 7 7 6 4 4 5 5 6 6 5 5 5 5 5 5 4 4 3 2 1 1 1
2 2 1 2 3 2 5 5 3 4 3 4 3 3 7 6 5 5 6 6 5 6 6 6 5 5 5 6 6 6 7 6 6 6 6 6 6 6 5 4 4 3 2 2
2 3 3 1 4 5 3 7 6 4 4 4 2 5 6 4 3 2 3 3 3 4 6 6 7 7 7 7 7 7 8 7 7 7 6 5 5 4 4 4 4 4 3 3
4 4 3 1 2 7 5 3 6 5 2 2 5 6 6 2 3 3 2 2 2 3 4 5 5 6 6 7 7 8 8 7 7 7 6 5 5 4 5 4 4 3 3 3
4 2 3 2 4 3 5 7 5 4 3 3 5 5 4 4 3 2 1 1 1 1 2 3 3 4 5 6 6 6 7 8 7 7 6 6 5 5 5 4 4 4 4 3
2 3 3 2 3 4 3 4 4 4 4 4 3 6 5 5 4 3 3 2 2 2 2 2 2 2 3 3 4 5 5 6 6 6 6 5 5 5 4 4 5 5 4 4
2 3 2 4 4 3 4 5 6 4 3 4 3 6 3 3 3 3 2 2 1 2 1 1 2 2 2 3 3 5 5 5 6 6 5 5 5 4 5 5 5 4 4 4
3 3 1 4 4 2 1 3 4 5 4 4 4 6 2 2 2 1 1 1 1 1 1 1 1 1 2 3 3 4 4 5 4 5 5 4 4 4 5 6 5 5 5 4
4 3 5 7 6 3 2 3 4 5 4 5 7 7 6 5 3 3 2 1 1 1 1 1 0 0 1 2 3 4 3 4 4 4 5 5 5 5 5 5 4 4 5 5
3 2 3 5 4 3 4 4 5 7 7 8 7 7 8 6 4 4 2 1 1 1 0 0 1 1 1 1 2 2 3 3 3 4 5 5 4 4 3 3 4 4 4 5
2 2 1 4 3 3 5 5 6 6 6 6 5 7 7 3 1 1 1 1 1 1 2 2 1 1 2 2 2 2 2 3 3 4 4 4 3 3 3 4 3 3 4 4
1 3 1 4 4 3 6 6 6 5 4 6 7 7 3 2 2 3 3 2 2 3 2 2 2 3 3 3 2 3 3 3 3 4 3 3 3 3 4 3 3 4 4 4
4 3 2 1 1 5 6 3 4 4 4 4 4 4 3 3 4 3 3 2 3 3 2 2 2 2 2 2 1 1 2 3 3 4 4 3 3 4 3 3 4 4 4 4
6 5 3 2 2 6 5 3 4 4 4 3 4 3 1 1 2 3 3 2 4 4 3 3 2 2 1 1 1 2 2 2 2 4 4 4 4 4 4 4 5 4 4 4
3 4 4 3 2 5 5 3 2 3 4 3 3 3 2 2 1 5 4 2 2 1 1 1 0 0 0 1 1 2 1 2 3 4 4 4 4 4 4 5 4 3 4 4
2 2 3 4 5 6 5 4 2 3 6 3 4 4 5 5 6 5 3 2 2 1 1 1 1 1 1 1 2 1 1 3 4 3 2 2 3 4 4 4 3 3 3 3
5 4 5 4 4 6 2 2 3 5 3 3 4 4 5 5 4 3 2 2 2 1 1 1 1 1 1 1 2 1 3 4 2 1 1 2 2 2 2 2 2 2 3 3
4 6 5 6 6 3 1 3 3 2 3 3 3 4 4 4 4 3 2 2 2 2 2 1 1 1 1 1 2 2 3 2 1 1 2 2 2 1 2 2 2 2 2 3
3 1 3 3 5 4 4 4 4 3 4 4 4 4 3 4 4 3 2 2 2 2 2 2 2 1 2 2 2 3 3 2 1 2 2 2 2 1 1 1 2 2 3 3
5 3 2 4 5 5 4 4 4 4 4 3 3 2 3 3 3 3 2 2 2 2 2 2 2 2 3 3 3 2 2 2 2 2 2 2 2 2 1 1 2 3 4 4
5 6 6 7 6 5 6 5 3 3 4 4 3 2 1 2 3 2 2 2 2 2 2 1 2 2 3 3 3 3 2 2 2 2 2 2 2 2 2 1 1 2 2 3
Wind_Direction
57 81 173 211 189 177 157 155 197 254 244 152 217 250 261 212 204 212 205 199 201 216 222 190 171 168 164 164 160 159 154 152 139 130 130 121 115 95 70 65 83 93 97 100
51 276 235 172 150 144 144 148 241 296 316 176 233 270 267 214 212 213 206 204 204 210 207 187 165 166 174 178 175 168 169 164 161 159 146 136 126 115 106 65 69 89 104 109
173 233 172 132 122 131 161 177 206 240 349 28 12 317 297 276 237 219 207 202 199 197 200 197 188 187 180 179 180 178 176 170 166 149 116 94 77 67 66 61 53 55 105 108
204 247 130 124 159 148 226 215 191 182 85 308 38 293 288 276 279 244 224 206 206 205 200 197 196 196 193 193 180 172 169 167 164 152 148 144 147 160 192 181 175 131 109 114
228 178 148 175 212 170 205 160 135 134 148 345 356 210 286 309 270 256 234 215 211 202 196 198 202 203 199 185 173 170 159 160 158 158 162 157 155 165 154 136 146 147 109 112
235 216 179 192 187 160 137 77 63 52 76 307 246 194 279 249 232 250 234 222 213 202 198 202 203 188 179 168 167 165 163 167 164 164 168 169 168 165 154 158 170 179 168 175
330 315 290 155 115 57 95 93 37 5 9 256 256 203 252 259 241 229 230 228 214 199 192 192 186 181 180 176 175 172 172 178 176 173 179 186 185 177 177 181 187 185 188 208
170 274 253 189 168 172 161 143 158 196 225 279 294 236 256 274 286 250 211 191 180 188 189 195 195 191 191 187 181 177 182 187 184 184 191 195 186 181 192 190 186 192 201 210
175 248 287 223 163 143 141 165 162 141 172 266 281 287 301 334 16 38 62 95 162 192 194 204 202 193 190 188 189 187 183 189 192 195 193 194 194 190 195 196 193 197 205 205
154 221 296 304 75 54 142 144 108 126 159 255 292 279 258 280 295 323 36 204 228 200 198 210 209 203 199 195 192 188 191 193 195 193 197 200 203 202 198 191 197 202 209 205
116 160 309 21 170 183 116 113 115 124 155 166 260 273 230 221 229 228 234 230 213 197 197 198 196 186 178 172 178 185 193 193 191 191 195 198 203 201 195 200 208 206 204 200
107 127 241 263 262 202 173 168 148 157 210 181 194 266 279 220 231 217 230 244 197 177 171 152 153 141 148 170 186 192 193 195 200 193 191 203 201 196 201 214 219 205 202 204
121 107 56 335 338 5 126 161 155 135 134 170 191 261 324 16 5 292 243 235 178 123 98 84 84 133 185 193 195 195 195 199 197 185 186 195 200 200 208 218 219 208 204 205
124 132 182 210 224 225 241 216 175 152 178 210 222 250 297 315 309 304 291 229 159 135 132 95 79 253 225 212 203 196 198 193 183 180 186 200 211 213 216 218 215 210 206 205
102 175 231 248 257 236 239 237 205 201 202 208 232 234 261 262 250 256 254 183 107 86 357 235 254 275 265 235 209 192 193 181 178 181 192 209 215 213 212 215 219 211 207 214
78 172 271 287 279 260 262 259 232 223 216 219 236 258 263 258 214 239 222 177 196 251 265 272 284 286 274 246 219 199 198 190 174 184 204 210 200 201 208 217 218 215 215 213
144 149 158 270 295 327 269 242 215 204 203 195 221 243 260 272 234 223 218 193 221 235 239 235 240 251 257 248 217 205 205 183 176 193 205 206 201 206 217 220 213 220 221 216
163 149 160 230 35 242 247 245 197 197 233 217 222 243 237 241 253 229 191 194 240 246 233 236 238 243 257 250 231 187 161 171 188 202 211 213 210 216 219 212 219 229 227 223
180 159 149 154 223 271 289 250 186 192 255 237 216 235 263 346 15 301 257 230 228 224 221 218 224 220 216 230 212 161 165 183 200 218 222 219 213 216 220 225 232 233 226 230
118 133 139 156 196 241 248 282 255 146 257 250 200 221 204 104 360 272 278 255 257 252 210 172 164 127 130 275 141 138 186 202 230 236 234 225 210 210 222 232 237 235 227 230
129 122 165 193 224 259 264 294 112 169 246 254 210 216 190 203 223 245 260 233 214 201 188 155 145 161 218 203 140 147 228 245 249 245 231 220 215 215 220 228 234 229 220 218
185 177 190 178 207 253 282 97 171 226 270 238 224 220 213 237 249 250 236 201 179 172 177 161 152 233 249 184 161 197 254 268 264 231 220 228 231 228 221 211 229 222 204 208
204 198 192 193 214 246 232 221 259 248 263 263 245 251 228 243 253 256 232 204 205 199 208 204 179 215 293 249 198 225 264 273 257 230 228 240 243 241 213 200 211 222 207 211
258 222 185 236 261 266 275 287 301 286 268 272 260 248 225 233 240 231 220 216 217 221 213 192 167 195 273 278 264 245 255 242 205 229 243 238 227 246 240 210 203 203 210 215
226 184 210 252 276 295 289 276 287 304 309 303 296 256 212 200 218 216 216 224 224 229 226 196 189 215 253 272 282 278 250 207 216 240 242 229 217 209 217 229 227 215 220 217
203 194 198 233 234 225 259 272 275 295 302 296 305 323 298 207 208 204 214 222 212 216 213 199 207 225 253 268 280 284 257 208 203 235 237 224 217 211 199 196 316 317 265 259
Height
1492 1498 1503 1502 1501 1503 1505 1509 1512 1508 1503 1506 1508 1508 1504 1503 1504 1505 1505 1506 1508 1509 1511 1513 1515 1517 1518 1519 1521 1522 1524 1525 1527 1528 1529 1530 1530 1531 1532 1533 1533 1533 1533 1533
1498 1501 1497 1496 1498 1501 1505 1510 1511 1508 1503 1505 1508 1507 1503 1502 1502 1502 1502 1504 1505 1507 1509 1511 1513 1514 1516 1517 1519 1521 1522 1524 1526 1527 1528 1529 1530 1531 1532 1532 1532 1533 1533 1533
1499 1498 1494 1496 1500 1503 1506 1509 1509 1510 1506 1506 1508 1510 1505 1501 1500 1500 1501 1502 1503 1505 1507 1509 1510 1512 1514 1515 1517 1519 1521 1523 1525 1526 1528 1529 1529 1530 1531 1531 1532 1532 1532 1532
1496 1494 1494 1497 1500 1502 1508 1502 1504 1507 1513 1519 1514 1524 1508 1502 1500 1499 1499 1500 1501 1503 1505 1507 1508 1510 1511 1513 1515 1517 1519 1521 1523 1525 1526 1527 1528 1529 1530 1530 1531 1532 1532 1532
1496 1494 1495 1498 1498 1498 1502 1500 1503 1507 1512 1519 1518 1523 1514 1504 1502 1498 1496 1497 1498 1499 1502 1504 1505 1507 1509 1512 1514 1516 1518 1520 1522 1523 1525 1526 1527 1528 1529 1529 1530 1531 1531 1531
1493 1491 1492 1494 1494 1495 1498 1503 1508 1514 1519 1528 1519 1523 1518 1506 1499 1495 1493 1494 1495 1496 1499 1501 1503 1506 1508 1510 1512 1514 1516 1518 1520 1522 1523 1524 1525 1526 1527 1528 1529 1529 1530 1530
1496 1493 1491 1491 1495 1497 1500 1513 1527 1529 1534 1530 1517 1519 1514 1497 1493 1492 1491 1491 1492 1494 1496 1498 1501 1503 1505 1508 1510 1512 1514 1516 1518 1519 1521 1522 1523 1524 1525 1526 1527 1527 1528 1528
1503 1504 1493 1491 1493 1499 1502 1509 1527 1534 1536 1530 1519 1519 1505 1493 1490 1489 1489 1490 1491 1492 1494 1496 1498 1501 1503 1505 1507 1509 1511 1513 1515 1517 1519 1520 1521 1522 1523 1524 1525 1525 1526 1527
1503 1503 1491 1489 1489 1494 1503 1508 1509 1522 1525 1530 1523 1513 1500 1492 1490 1489 1489 1489 1490 1491 1493 1495 1497 1499 1501 1503 1505 1507 1509 1511 1513 1515 1516 1518 1519 1520 1521 1522 1523 1523 1524 1524
1496 1502 1494 1490 1490 1493 1496 1503 1514 1522 1530 1533 1524 1517 1510 1496 1493 1491 1490 1490 1490 1491 1492 1494 1495 1497 1499 1501 1503 1505 1507 1508 1510 1512 1514 1515 1516 1518 1518 1519 1520 1520 1521 1522
1494 1502 1499 1494 1495 1498 1501 1505 1510 1519 1522 1531 1531 1519 1496 1493 1491 1490 1489 1489 1489 1490 1491 1493 1494 1495 1497 1499 1501 1502 1504 1506 1508 1509 1511 1513 1514 1515 1516 1517 1517 1518 1518 1519
1496 1503 1506 1499 1492 1491 1494 1499 1507 1516 1521 1523 1526 1516 1490 1489 1488 1488 1488 1489 1489 1490 1491 1492 1493 1494 1495 1497 1498 1499 1501 1502 1504 1506 1508 1510 1511 1512 1513 1513 1514 1515 1515 1516
1496 1504 1510 1507 1503 1497 1496 1497 1501 1508 1517 1524 1524 1511 1490 1489 1488 1488 1488 1488 1488 1489 1490 1491 1492 1493 1493 1494 1496 1496 1498 1499 1501 1503 1505 1506 1507 1508 1509 1510 1511 1512 1512 1513
1493 1503 1507 1509 1504 1499 1498 1497 1499 1504 1513 1517 1513 1503 1493 1490 1489 1488 1488 1488 1488 1488 1489 1489 1490 1490 1491 1492 1493 1494 1495 1497 1498 1499 1501 1502 1503 1504 1505 1506 1507 1508 1508 1509
1494 1502 1500 1498 1495 1495 1495 1495 1496 1499 1500 1505 1501 1499 1492 1489 1488 1487 1487 1487 1487 1487 1487 1488 1488 1489 1489 1490 1491 1492 1493 1494 1495 1496 1498 1499 1500 1501 1502 1503 1503 1504 1505 1505
1496 1500 1499 1498 1494 1494 1494 1492 1492 1493 1494 1496 1495 1494 1487 1486 1486 1486 1486 1486 1486 1486 1487 1487 1487 1487 1487 1488 1488 1489 1490 1491 1492 1493 1494 1495 1496 1497 1498 1499 1499 1500 1501 1501
1498 1500 1504 1504 1497 1495 1497 1490 1489 1489 1488 1490 1492 1489 1485 1485 1485 1484 1484 1484 1485 1485 1486 1486 1486 1486 1486 1486 1487 1487 1488 1489 1490 1491 1491 1492 1493 1493 1494 1495 1495 1496 1496 1497
1497 1501 1506 1506 1502 1503 1491 1482 1482 1484 1484 1484 1484 1483 1483 1483 1483 1483 1482 1483 1483 1483 1484 1484 1484 1485 1485 1485 1485 1486 1486 1487 1487 1488 1488 1489 1490 1490 1490 1491 1491 1492 1492 1492
1492 1498 1505 1508 1506 1498 1487 1481 1481 1484 1484 1481 1481 1481 1481 1481 1481 1481 1480 1480 1481 1481 1482 1482 1483 1483 1483 1483 1483 1483 1484 1484 1484 1485 1485 1486 1486 1486 1487 1487 1487 1488 1488 1488
1492 1494 1502 1506 1503 1500 1486 1478 1476 1480 1484 1478 1478 1479 1480 1481 1484 1481 1478 1478 1478 1479 1480 1480 1480 1481 1481 1481 1481 1481 1481 1481 1481 1481 1482 1482 1483 1483 1483 1483 1483 1484 1484 1484
1494 1497 1501 1504 1501 1492 1481 1477 1477 1487 1484 1476 1476 1476 1477 1478 1478 1477 1476 1476 1476 1477 1477 1478 1478 1478 1479 1479 1479 1478 1478 1478 1478 1479 1479 1479 1479 1479 1479 1479 1480 1480 1480 1480
1492 1495 1498 1500 1499 1493 1478 1477 1480 1479 1474 1473 1473 1473 1473 1473 1473 1473 1474 1473 1474 1474 1475 1476 1476 1476 1476 1476 1476 1476 1476 1476 1476 1476 1475 1475 1475 1475 1476 1476 1476 1476 1476 1476
1488 1487 1487 1487 1486 1478 1476 1475 1475 1474 1473 1471 1470 1470 1470 1470 1470 1470 1470 1470 1471 1472 1472 1473 1473 1473 1473 1474 1474 1473 1473 1473 1473 1472 1472 1472 1472 1472 1472 1472 1472 1472 1472 1472
1484 1482 1482 1482 1477 1474 1473 1473 1472 1471 1470 1469 1468 1467 1467 1467 1466 1467 1467 1467 1468 1468 1469 1470 1470 1470 1470 1471 1471 1471 1471 1470 1470 1469 1469 1469 1469 1468 1468 1468 1468 1468 1468 1468
1479 1480 1480 1479 1474 1472 1470 1470 1470 1469 1467 1466 1465 1465 1464 1464 1464 1464 1464 1465 1465 1466 1466 1467 1467 1467 1468 1468 1468 1468 1467 1467 1466 1466 1466 1465 1465 1465 1465 1465 1465 1465 1465 1465
1474 1475 1477 1474 1470 1470 1468 1467 1467 1466 1465 1464 1463 1462 1462 1462 1462 1462 1462 1463 1463 1463 1464 1464 1464 1465 1465 1465 1465 1464 1464 1464 1463 1462 1462 1462 1462 1462 1462 1462 1462 1462 1462 1462